Regional Weather Roundup
Issued by NWS

Home | Current Version | Previous Version | Graphics & Text | Print | Product List | Glossary On
Versions: 1 2 3 4 5 6 7 8 9 10 11 12 13 14 15 16 17 18 19 20 21 22 23 24 25 26 27 28 29 30 31 32 33 34 35 36 37 38 39 40 41 42 43 44 45 46 47 48 49 50
000
ASUS43 KIND 192209
RWRIN

WEATHER ROUNDUP FOR INDIANA
NATIONAL WEATHER SERVICE INDIANAPOLIS IN
600 PM EDT FRI SEP 19 2014

NOTE: "FAIR" INDICATES FEW OR NO CLOUDS BELOW 12,000 FEET WITH NO
SIGNIFICANT WEATHER AND/OR OBSTRUCTIONS TO VISIBILITY.

* - STATION DOES NOT REPORT WEATHER SUCH AS PRECIPITATION OR FOG.

+ - STATION NOT QUALITY CONTROLLED BY THE NATIONAL WEATHER SERVICE.
    USE DATA WITH CAUTION...ESPECIALLY DEWPOINT AND RELATIVE
    HUMIDITY OBSERVATIONS.

INZ001>003-010>013-019-020-192300-
NORTHWEST INDIANA

CITY           SKY/WX    TMP DP  RH WIND       PRES   REMARKS
GARY /AIRPORT/ MOSUNNY   75  43  31 S7        30.04F
KNOX *+        SUNNY     73  44  36 S9        30.05F
LA PORTE +     SUNNY     71  44  38 S9        30.06F
MICHIGAN CITY+ SUNNY     72  43  35 S7        30.05F
MONTICELLO +   SUNNY     71  49  45 S6        30.05F
RENSSELAER +   SUNNY     73  45  35 SE9       30.06S
VALPARAISO     SUNNY     73  45  36 S12       30.05F

$$

LMZ046-743>745-192300-
SOUTHERN LAKE MICHIGAN

STATION/POSITION TIME  TEMP WIND        PRES
                       AIR  DIR/SP/G
                 (UTC) (F)  (DEG/KT/KT) (MB)
MICHIGAN CITY    2200   71  130/ 12/ 17   N/A

$$

INZ004-005-014>016-021>024-192300-
NORTH CENTRAL INDIANA

CITY           SKY/WX    TMP DP  RH WIND       PRES   REMARKS
ELKHART        SUNNY     70  46  43 SE9       30.08F
GOSHEN         SUNNY     71  47  42 SE10      30.08F
LOGANSPORT +   SUNNY     70  43  37 SE10      30.08S
PERU/GRISSOM   SUNNY     71  51  47 SE12      30.07F
ROCHESTER +    SUNNY     73  46  38 SE8       30.08F
SOUTH BEND     SUNNY     72  46  39 S12       30.07F
WARSAW +       SUNNY     70  46  43 SE3       30.09S

$$

INZ006>009-017-018-025>027-192300-
NORTHEAST INDIANA

CITY           SKY/WX    TMP DP  RH WIND       PRES   REMARKS
ANGOLA *+      SUNNY     70  61  73 S7        30.10S
AUBURN +       SUNNY     70  45  40 SE5       30.10F
FORT WAYNE     PTSUNNY   69  47  45 SE6       30.11F
HUNTINGTON +   SUNNY     70  50  49 SE6       30.09S

$$

INZ028-029-035-036-043>045-051>053-192300-
WEST CENTRAL INDIANA

CITY           SKY/WX    TMP DP  RH WIND       PRES   REMARKS
GREENCASTLE +  SUNNY     72  50  46 SE6       30.07F
LAFAYETTE      SUNNY     71  47  42 SE9       30.05F
TERRE HAUTE    SUNNY     73  51  46 SE10      30.06F

$$

INZ030>032-037>040-046>048-054>057-064-065-192300-
CENTRAL INDIANA

CITY           SKY/WX    TMP DP  RH WIND       PRES   REMARKS
CP ATTERBURY + SUNNY     72  50  46 S5        30.08S
COLUMBUS       SUNNY     73  48  40 SE8       30.07F
FRANKFORT +    SUNNY     73  48  40 SE5       30.08F
INDIANAPOLIS   MOSUNNY   72  46  39 SE9       30.07F
-EAGLE CREEK   SUNNY     73  46  38 SE8       30.07F
KOKOMO *+      SUNNY     70  46  43 S9        30.08F
MARION +       SUNNY     71  42  35 SE6       30.09F
MT COMFORT *+  SUNNY     73  30  20 SE9       30.09S
SHELBYVILLE    SUNNY     76  48  37 CALM      30.07F
ZIONSVILLE +   SUNNY     72  45  38 SE6       30.08F

$$

INZ033-034-041-042-049-050-058-059-192300-
EAST CENTRAL INDIANA

CITY           SKY/WX    TMP DP  RH WIND       PRES   REMARKS
MUNCIE         SUNNY     71  16  12 SE12      30.09F

$$

INZ060-061-067>069-081>083-085>088-192300-
SOUTHWEST INDIANA

CITY           SKY/WX    TMP DP  RH WIND       PRES   REMARKS
EVANSVILLE     SUNNY     79  53  40 E5        30.03F
WASHINGTON +   SUNNY     76  54  47 SE6       30.04S

$$

INZ062-063-066-070>080-084-089>092-192300-
SOUTH CENTRAL AND SOUTHEAST INDIANA

CITY           SKY/WX    TMP DP  RH WIND       PRES   REMARKS
BLOOMINGTON    SUNNY     73  50  44 S6        30.07F
SEYMOUR +      SUNNY     77  52  41 S6        30.06F

$$



USA.gov is the U.S. government's official web portal to all federal, state and local government web resources and services.